Weather History for Covington, KY

Change the Weather History Date:

Sunday, December 22, 2013

  Actual Average Record
Temperature  
Mean Temperature 50 °F 32 °F  
Max Temperature 62 °F 40 °F 64 °F (1941)
Min Temperature 38 °F 25 °F -20 °F (1989)
Degree Days  
Heating Degree Days 15 33  
Month to date heating degree days 617 658  
Since 1 July heating degree days 1653 1618  
Cooling Degree Days 0 0  
Month to date cooling degree days 0 0  
Year to date cooling degree days 1150 1121  
Moisture  
Dew Point 48 °F    
Average Humidity 84    
Maximum Humidity 97    
Minimum Humidity 71    
Precipitation  
Precipitation 0.42 in 0.11 in 1.24 in (1879)
Month to date precipitation 4.62 2.38  
Year to date precipitation 49.19 41.53  
Snow  
Snow 0.00 in 0.20 in 4.50 in (1916)
Month to date snowfall 10.1 3.0  
Since 1 July snowfall 12.5 3.8  
Snow Depth 0.00 in    
Sea Level Pressure  
Sea Level Pressure 29.80 in    
Wind  
Wind Speed 13 mph (SW)    
Max Wind Speed 30 mph    
Max Gust Speed 39 mph    
Visibility 9 miles    
Events Rain    
T = Trace of Precipitation, MM = Missing Value Source: NWS Daily Summary

Daily Weather History Graph

Daily Weather History Graph

Search for Another Location

Airport:

Trip Planner

Search our weather history database for the weather conditions in past years. The results will help you decide how hot, cold, wet, or windy it might be!

Date:

Astronomy

Dec. 22, 2013 Rise Set
Actual Time 7:54 AM EST 5:20 PM EST
Civil Twilight 7:24 AM EST 5:50 PM EST
Nautical Twilight 6:51 AM EST 6:23 PM EST
Astronomical Twilight 6:18 AM EST 6:56 PM EST
Moon 10:29 PM EST (12/22) 10:52 AM EST (12/22)
Length of Visible Light 10h 25m
Length of Day
9h 25m
Waning Gibbous, 77% of the Moon is Illuminated
Dec 22
Waning Gibbous
Dec 25
Last Quarter
Jan 1
New
Jan 7
First Quarter
Jan 15
Full

Hourly Weather History & Observations

Time (EST) Temp. Windchill Dew Point Humidity Pressure Visibility Wind Dir Wind Speed Gust Speed Precip Events Conditions
12:52 AM 62.1 °F - 61.0 °F 96% 29.61 in 5.0 mi SSW 11.5 mph 25.3 mph 0.19 in Rain Rain
1:52 AM 60.1 °F - 59.0 °F 96% 29.60 in 8.0 mi South 17.3 mph 23.0 mph 0.08 in Rain Light Rain
2:28 AM 60.8 °F - 59.0 °F 94% 29.60 in 9.0 mi SSE 17.3 mph - 0.03 in Rain Light Rain
2:52 AM 60.1 °F - 57.9 °F 93% 29.60 in 10.0 mi South 25.3 mph 34.5 mph 0.04 in Rain Light Rain
3:52 AM 60.1 °F - 57.9 °F 93% 29.58 in 8.0 mi South 26.5 mph 35.7 mph 0.03 in Rain Light Rain
4:48 AM 60.8 °F - 57.2 °F 88% 29.65 in 10.0 mi South 17.3 mph 25.3 mph 0.01 in Rain Light Rain
4:52 AM 60.1 °F - 57.9 °F 93% 29.60 in 6.0 mi South 18.4 mph 27.6 mph 0.01 in Rain Rain
5:36 AM 59.0 °F - 57.2 °F 94% 29.62 in 9.0 mi SSW 13.8 mph 24.2 mph 0.02 in   Overcast
5:52 AM 60.1 °F - 57.0 °F 90% 29.62 in 10.0 mi SSW 13.8 mph 25.3 mph 0.02 in   Overcast
6:46 AM 59.0 °F - 57.2 °F 94% 29.66 in 4.0 mi SW 13.8 mph 31.1 mph 0.07 in   Overcast
6:52 AM 59.0 °F - 57.0 °F 93% 29.65 in 10.0 mi SW 11.5 mph 24.2 mph 0.07 in   Overcast
7:52 AM 55.9 °F - 51.1 °F 84% 29.72 in 10.0 mi SW 17.3 mph 23.0 mph N/A   Overcast
8:52 AM 53.1 °F - 48.9 °F 86% 29.76 in 10.0 mi SW 11.5 mph 20.7 mph N/A   Mostly Cloudy
9:52 AM 53.1 °F - 46.9 °F 80% 29.78 in 10.0 mi WSW 15.0 mph 26.5 mph N/A   Mostly Cloudy
10:52 AM 53.1 °F - 46.0 °F 77% 29.83 in 10.0 mi SW 19.6 mph 27.6 mph N/A   Mostly Cloudy
11:52 AM 52.0 °F - 44.1 °F 74% 29.87 in 10.0 mi WSW 12.7 mph 27.6 mph N/A   Mostly Cloudy
12:52 PM 51.1 °F - 44.1 °F 77% 29.84 in 10.0 mi WSW 13.8 mph 23.0 mph N/A   Mostly Cloudy
1:52 PM 51.1 °F - 43.0 °F 74% 29.85 in 10.0 mi WSW 10.4 mph 20.7 mph N/A   Overcast
2:52 PM 51.1 °F - 42.1 °F 71% 29.86 in 10.0 mi SW 9.2 mph 19.6 mph N/A   Overcast
3:33 PM 48.2 °F - 41.0 °F 76% 29.89 in 10.0 mi WSW 12.7 mph 19.6 mph N/A   Mostly Cloudy
3:52 PM 48.9 °F - 42.1 °F 77% 29.89 in 10.0 mi Variable 6.9 mph 17.3 mph N/A   Mostly Cloudy
4:52 PM 48.0 °F - 42.1 °F 80% 29.91 in 10.0 mi SW 11.5 mph - N/A   Overcast
5:36 PM 46.4 °F 43.5 °F 42.8 °F 87% 29.91 in 10.0 mi SSW 5.8 mph - N/A   Mostly Cloudy
5:52 PM 46.9 °F - 42.1 °F 83% 29.90 in 10.0 mi SSW 3.5 mph - N/A   Mostly Cloudy
6:33 PM 46.4 °F 45.2 °F 42.8 °F 87% 29.93 in 10.0 mi SSW 3.5 mph - N/A   Mostly Cloudy
6:52 PM 46.9 °F - 43.0 °F 86% 29.93 in 10.0 mi SW 3.5 mph - N/A   Overcast
7:52 PM 46.9 °F - 44.1 °F 90% 29.97 in 7.0 mi West 13.8 mph - 0.00 in Rain Light Drizzle
8:01 PM 44.6 °F 37.8 °F 42.8 °F 93% 29.97 in 6.0 mi West 15.0 mph - 0.00 in   Light Drizzle
8:52 PM 42.1 °F 34.5 °F 39.9 °F 92% 29.98 in 8.0 mi NW 15.0 mph 20.7 mph 0.00 in   Light Drizzle
9:52 PM 41.0 °F 35.2 °F 39.0 °F 93% 30.00 in 7.0 mi WNW 9.2 mph - 0.00 in   Overcast
10:52 PM 39.0 °F 32.8 °F 37.0 °F 93% 30.03 in 5.0 mi WNW 9.2 mph - 0.00 in Rain Light Rain
11:28 PM 39.2 °F 32.0 °F 35.6 °F 87% 30.04 in 10.0 mi WNW 11.5 mph - 0.00 in   Overcast
11:52 PM 37.9 °F 31.5 °F 35.1 °F 89% 30.05 in 10.0 mi West 9.2 mph - 0.00 in   Overcast